When you browse on this site, cookies collect data to enhance your experience and personalize the content and advertising you see.
Visit our Privacy Policy to learn more. By continuing to use the site, you agree to this use of cookies and data.
  • En España
  • Lista de países
  • Para 7 días
  • Temperatura del agua
  • El tiempo en el mapa
  • Informadores
  • user-avatar
    Iniciar sesión

    Tiempo cada hora Gradec-Kralove

    Hoy, 1 Junio, Lunes

    Tiempo Temperatura Precipitaciones Viento Presión Humedad
    00:00 +10°C° 0 mm 2 mps 743 mmHg 93%
    01:00 +12°C° 0 mm 2 mps 744 mmHg 96%
    02:00 +12°C° 0 mm 1 mps 744 mmHg 95%
    03:00 +12°C° 0 mm 1 mps 744 mmHg 94%
    04:00 +12°C° 0 mm 1 mps 743 mmHg 94%
    05:00 +13°C° 0 mm 1 mps 744 mmHg 90%
    06:00 +14°C° 0 mm 1 mps 744 mmHg 87%
    07:00 +16°C° 0 mm 2 mps 744 mmHg 82%
    08:00 +17°C° 0 mm 2 mps 744 mmHg 76%
    09:00 +18°C° 0 mm 3 mps 744 mmHg 69%
    10:00 +20°C° 0 mm 4 mps 744 mmHg 63%
    11:00 +20°C° 0 mm 4 mps 744 mmHg 62%
    12:00 +20°C° 0 mm 5 mps 744 mmHg 60%
    13:00 +21°C° 0 mm 5 mps 744 mmHg 58%
    14:00 +20°C° 0 mm 5 mps 744 mmHg 59%
    15:00 +20°C° 0 mm 5 mps 744 mmHg 59%
    16:00 +20°C° 0 mm 5 mps 744 mmHg 60%
    17:00 +17°C° 0 mm 5 mps 744 mmHg 64%
    18:00 +17°C° 0 mm 4 mps 744 mmHg 69%
    19:00 +14°C° 0 mm 4 mps 744 mmHg 73%
    20:00 +13°C° 0 mm 3 mps 744 mmHg 77%
    21:00 +12°C° 0 mm 2 mps 744 mmHg 81%
    22:00 +10°C° 0 mm 1 mps 744 mmHg 85%
    23:00 +10°C° 0 mm 1 mps 744 mmHg 86%

    Mañana, 2 Junio, Martes

    Tiempo Temperatura Precipitaciones Viento Presión Humedad
    00:00 +10°C° 0 mm 1 mps 744 mmHg 87%
    01:00 +9°C° 0 mm 1 mps 744 mmHg 88%
    02:00 +9°C° 0 mm 1 mps 743 mmHg 88%
    03:00 +9°C° 0 mm 1 mps 743 mmHg 89%
    04:00 +8°C° 0 mm 1 mps 743 mmHg 90%
    05:00 +9°C° 0 mm 2 mps 743 mmHg 85%
    06:00 +12°C° 0 mm 2 mps 743 mmHg 80%
    07:00 +13°C° 0 mm 3 mps 743 mmHg 75%
    08:00 +14°C° 0 mm 4 mps 742 mmHg 70%
    09:00 +15°C° 0 mm 4 mps 742 mmHg 65%
    10:00 +16°C° 0 mm 5 mps 742 mmHg 60%
    11:00 +17°C° 0 mm 5 mps 742 mmHg 58%
    12:00 +17°C° 0 mm 5 mps 742 mmHg 56%
    13:00 +19°C° 0 mm 5 mps 741 mmHg 54%
    14:00 +19°C° 0 mm 5 mps 741 mmHg 54%
    15:00 +19°C° 0 mm 5 mps 741 mmHg 55%
    16:00 +19°C° 0 mm 5 mps 740 mmHg 56%
    17:00 +18°C° 0 mm 4 mps 740 mmHg 62%
    18:00 +17°C° 0 mm 3 mps 739 mmHg 69%
    19:00 +16°C° 0 mm 2 mps 739 mmHg 76%
    20:00 +14°C° 0.1 mm 1 mps 739 mmHg 80%
    21:00 +13°C° 0.1 mm 1 mps 739 mmHg 83%
    22:00 +12°C° 0.1 mm 1 mps 739 mmHg 87%
    23:00 +12°C° 0.1 mm 1 mps 738 mmHg 89%

    Pasado mañana, 3 Junio, Miércoles

    Tiempo Temperatura Precipitaciones Viento Presión Humedad
    00:00 +12°C° 0.1 mm 1 mps 738 mmHg 90%
    01:00 +12°C° 0.1 mm 1 mps 737 mmHg 92%
    02:00 +11°C° 0 mm 1 mps 737 mmHg 93%
    03:00 +11°C° 0 mm 1 mps 737 mmHg 94%
    04:00 +11°C° 0 mm 1 mps 736 mmHg 95%
    05:00 +12°C° 0.1 mm 2 mps 736 mmHg 92%
    06:00 +13°C° 0.1 mm 2 mps 736 mmHg 89%
    07:00 +15°C° 0.1 mm 2 mps 736 mmHg 87%
    08:00 +16°C° 0.3 mm 2 mps 735 mmHg 83%
    09:00 +17°C° 0.3 mm 3 mps 735 mmHg 79%
    10:00 +18°C° 0.3 mm 3 mps 735 mmHg 75%
    11:00 +19°C° 0.7 mm 3 mps 735 mmHg 73%
    12:00 +19°C° 0.7 mm 3 mps 735 mmHg 72%
    13:00 +20°C° 0.7 mm 3 mps 734 mmHg 70%
    14:00 +19°C° 1.1 mm 3 mps 734 mmHg 71%
    15:00 +19°C° 1.1 mm 3 mps 734 mmHg 71%
    16:00 +19°C° 1.1 mm 2 mps 733 mmHg 72%
    17:00 +18°C° 0.2 mm 2 mps 733 mmHg 75%
    18:00 +17°C° 0.2 mm 2 mps 733 mmHg 77%
    19:00 +16°C° 0.2 mm 2 mps 732 mmHg 80%
    20:00 +15°C° 0 mm 2 mps 732 mmHg 79%
    21:00 +13°C° 0 mm 2 mps 732 mmHg 79%
    22:00 +12°C° 0 mm 1 mps 732 mmHg 78%
    23:00 +10°C° 0 mm 2 mps 732 mmHg 80%

    4 Junio, Jueves

    Tiempo Temperatura Precipitaciones Viento Presión Humedad
    00:00 +10°C° 0 mm 2 mps 732 mmHg 81%
    01:00 +9°C° 0 mm 2 mps 732 mmHg 83%
    02:00 +9°C° 0 mm 2 mps 731 mmHg 83%
    03:00 +9°C° 0 mm 2 mps 731 mmHg 84%
    04:00 +8°C° 0 mm 2 mps 731 mmHg 84%
    05:00 +10°C° 0 mm 2 mps 731 mmHg 81%
    06:00 +13°C° 0 mm 2 mps 730 mmHg 78%
    07:00 +14°C° 0 mm 2 mps 730 mmHg 74%
    08:00 +16°C° 0 mm 2 mps 730 mmHg 71%
    09:00 +17°C° 0 mm 2 mps 730 mmHg 68%
    10:00 +19°C° 0 mm 3 mps 730 mmHg 65%
    11:00 +20°C° 0.1 mm 3 mps 729 mmHg 65%
    12:00 +20°C° 0.1 mm 3 mps 729 mmHg 65%
    13:00 +21°C° 0.1 mm 3 mps 729 mmHg 65%
    14:00 +20°C° 0.2 mm 3 mps 728 mmHg 68%
    15:00 +20°C° 0.2 mm 3 mps 727 mmHg 72%
    16:00 +20°C° 0.2 mm 3 mps 727 mmHg 76%
    17:00 +19°C° 0 mm 3 mps 726 mmHg 78%
    18:00 +19°C° 0 mm 3 mps 726 mmHg 81%
    19:00 +18°C° 0 mm 3 mps 725 mmHg 84%
    20:00 +17°C° 0.4 mm 3 mps 725 mmHg 86%
    21:00 +16°C° 0.4 mm 3 mps 725 mmHg 89%
    22:00 +16°C° 0.4 mm 3 mps 725 mmHg 92%
    23:00 +15°C° 0.5 mm 2 mps 724 mmHg 93%

    5 Junio, Viernes

    Tiempo Temperatura Precipitaciones Viento Presión Humedad
    00:00 +15°C° 0.5 mm 2 mps 724 mmHg 94%
    01:00 +15°C° 0.5 mm 1 mps 724 mmHg 95%
    02:00 +15°C° 1.1 mm 2 mps 724 mmHg 96%
    03:00 +14°C° 1.1 mm 3 mps 724 mmHg 96%
    04:00 +14°C° 1.1 mm 3 mps 724 mmHg 97%
    05:00 +14°C° 0.3 mm 4 mps 725 mmHg 96%
    06:00 +14°C° 0.3 mm 4 mps 725 mmHg 96%
    07:00 +14°C° 0.3 mm 4 mps 725 mmHg 95%
    08:00 +14°C° 0.2 mm 4 mps 726 mmHg 92%
    09:00 +15°C° 0.2 mm 4 mps 727 mmHg 88%
    10:00 +15°C° 0.2 mm 4 mps 727 mmHg 85%
    11:00 +14°C° 0.4 mm 5 mps 728 mmHg 86%
    12:00 +13°C° 0.4 mm 5 mps 728 mmHg 87%
    13:00 +12°C° 0.4 mm 5 mps 729 mmHg 88%
    14:00 +10°C° 0.8 mm 5 mps 729 mmHg 90%
    15:00 +11°C° 0.8 mm 4 mps 730 mmHg 92%
    16:00 +10°C° 0.8 mm 3 mps 730 mmHg 94%
    17:00 +12°C° 0.1 mm 2 mps 731 mmHg 93%
    18:00 +12°C° 0.1 mm 2 mps 731 mmHg 92%
    19:00 +12°C° 0.1 mm 2 mps 731 mmHg 90%
    20:00 +10°C° 0 mm 2 mps 732 mmHg 89%
    21:00 +11°C° 0 mm 1 mps 732 mmHg 88%
    22:00 +10°C° 0 mm 1 mps 733 mmHg 88%
    23:00 +9°C° 0 mm 1 mps 733 mmHg 88%

    6 Junio, Sábado

    Tiempo Temperatura Precipitaciones Viento Presión Humedad
    00:00 +8°C° 0 mm 2 mps 733 mmHg 89%
    01:00 +7°C° 0 mm 2 mps 733 mmHg 90%
    02:00 +7°C° 0 mm 2 mps 734 mmHg 91%
    03:00 +7°C° 0 mm 1 mps 734 mmHg 91%
    04:00 +7°C° 0 mm 1 mps 734 mmHg 92%
    05:00 +8°C° 0 mm 2 mps 734 mmHg 88%
    06:00 +10°C° 0 mm 2 mps 734 mmHg 85%
    07:00 +12°C° 0 mm 2 mps 735 mmHg 81%
    08:00 +13°C° 0 mm 3 mps 735 mmHg 78%
    09:00 +14°C° 0 mm 4 mps 735 mmHg 75%
    10:00 +15°C° 0 mm 4 mps 735 mmHg 72%
    11:00 +16°C° 0.2 mm 5 mps 735 mmHg 70%
    12:00 +17°C° 0.2 mm 5 mps 735 mmHg 69%
    13:00 +19°C° 0.2 mm 5 mps 735 mmHg 67%
    14:00 +19°C° 0.2 mm 5 mps 735 mmHg 68%
    15:00 +19°C° 0.2 mm 5 mps 735 mmHg 70%
    16:00 +19°C° 0.2 mm 5 mps 735 mmHg 71%
    17:00 +18°C° 0.1 mm 4 mps 735 mmHg 75%
    18:00 +17°C° 0.1 mm 3 mps 735 mmHg 80%
    19:00 +17°C° 0.1 mm 2 mps 735 mmHg 84%
    20:00 +15°C° 0 mm 2 mps 735 mmHg 86%
    21:00 +14°C° 0 mm 2 mps 736 mmHg 89%
    22:00 +13°C° 0 mm 2 mps 736 mmHg 91%
    23:00 +12°C° 0 mm 2 mps 736 mmHg 92%
    Mostrar más